PCSAT (NO-44) (26931 NORAD) Tracking and Keplerian Element Data

This shows tracking and keplerian element data for the satellite.

Feedback or suggestion? Click here.




ElementValue
Catalog26931
NamePCSAT (NO-44)
Epoch Orbit808
Epoch Day20.52583757
Epoch Year2021
RAAN302.2039
Inclination67.0523
Eccentricity0.0007406
Argument of Perigee271.6882
Mean Anonmoly88.3371
Mean Motion14.30603169
Decay Rate-4.8E-07
L11 26931U 01043C 21020.52583757 -.00000048 00000-0 13217-4 0 9997
L22 26931 67.0523 302.2039 0007406 271.6882 88.3371 14.30603169 8085

Live tracking and technical data element details for PCSAT (NO-44) (NORAD 26931). PCSAT (NO-44) can be tracked NOW for your location showing map with azimuth and elevation plus other details from your city location.

Track the satellite on the map from your city or location and see movement details for azimuth, elevation, latitude, longitude, range, height, and movement on the map or in text.







IsCatalogInMostPopularTable: catalog: 26931, numindb: 1057
Update: records affected: 1



GetName: 26931 PCSAT (NO-44)

Hit Count: updated at: Sat, 23 Jan 2021 04:30:31 GMT